Regional Weather Roundup
Issued by NWS

Home | Current Version | Previous Version | Text Only | Print | Product List | Glossary On
Versions: 1 2 3 4 5 6 7 8 9 10 11 12 13 14 15 16 17 18 19 20 21 22 23 24 25 26 27 28 29 30 31 32 33 34 35 36 37 38 39 40 41 42 43 44 45 46 47 48 49 50
000
ASUS43 KDTX 251201
RWRMI
MICHIGAN HOURLY REGIONAL WEATHER ROUNDUP
NATIONAL WEATHER SERVICE DETROIT/PONTIAC MI
800 AM EDT TUE APR 25 2017

NOTE: "FAIR" INDICATES FEW OR NO CLOUDS BELOW 12,000 FEET WITH NO
SIGNIFICANT WEATHER AND/OR OBSTRUCTION TO VISIBILITY.

MIZ047>049-052>055-059>063-066>070-074>076-081>083-251300-
SOUTHEAST LOWER MICHIGAN

CITY           SKY/WX    TMP DP  RH WIND       PRES   REMARKS
ADRIAN         MOSUNNY   50  48  93 E5        29.85S
6HR MIN TEMP:  47; 6HR MAX TEMP:  50;

ALMA           MOSUNNY   49  44  82 E7        29.85S
ANN ARBOR      CLOUDY    52  45  77 E5        29.86R
BAD AXE        CLOUDY    46  38  72 SE5       29.92R
6HR MIN TEMP:  46; 6HR MAX TEMP:  47;

CARO           CLOUDY    49  40  72 E5        29.89R
DETROIT CITY   CLOUDY    52  47  83 SE10      29.88S
6HR MIN TEMP:  50; 6HR MAX TEMP:  52;

DETROIT        CLOUDY    52  45  77 E6        29.88R
6HR MIN TEMP:  51; 6HR MAX TEMP:  53;

FLINT          CLOUDY    52  43  71 SE7       29.87S
6HR MIN TEMP:  47; 6HR MAX TEMP:  52;

GROSSE ILE     CLOUDY    52  45  78 E6        29.87S
6HR MIN TEMP:  48; 6HR MAX TEMP:  53;

HILLSDALE      CLOUDY    50  45  81 E8        29.83S
HOWELL         CLOUDY    52  42  69 SE9       29.85S
6HR MIN TEMP:  51; 6HR MAX TEMP:  53;


CITY           SKY/WX    TMP DP  RH WIND       PRES   REMARKS
JACKSON        CLOUDY    53  46  77 SE10      29.84S
6HR MIN TEMP:  52; 6HR MAX TEMP:  53;

LAMBERTVILLE   CLOUDY    53  49  87 E3        29.85S
6HR MIN TEMP:  51; 6HR MAX TEMP:  55;

LANSING        CLOUDY    55  45  68 SE10      29.84S
6HR MIN TEMP:  52; 6HR MAX TEMP:  55;

LAPEER         CLOUDY    50  41  70 MISG      29.89R
6HR MIN TEMP:  47; 6HR MAX TEMP:  50;

MASON          CLOUDY    52  46  80 SE7       29.84S
MONROE         CLOUDY    53  47  80 E9        29.86S
6HR MIN TEMP:  50; 6HR MAX TEMP:  53;

MT. CLEMENS    PTSUNNY   51  49  92 E8        29.87S
6HR MIN TEMP:  48; 6HR MAX TEMP:  51;

PONTIAC        PTSUNNY   50  42  74 E7        29.86S
6HR MIN TEMP:  49; 6HR MAX TEMP:  51;

PORT HOPE        N/A     48  39  71 SE17G24   29.90R
6HR MIN TEMP:  47; 6HR MAX TEMP:  49;

PORT HURON     CLOUDY    50  41  71 SE8       29.90S
TRI CITIES     CLOUDY    50  42  74 E12       29.87F
6HR MIN TEMP:  47; 6HR MAX TEMP:  50;

MIDLAND        PTSUNNY   50  38  65 E9        29.85F
6HR MIN TEMP:  46; 6HR MAX TEMP:  50;

TROY           CLOUDY    53  43  69 E5        29.89S
SAGINAW HB     CLOUDY    50  37  62 E7        29.86F
$$
MIZ043>046-050>051-056>058-064>065-071>073-077>080-251300-
SOUTHWEST LOWER MICHIGAN

CITY           SKY/WX    TMP DP  RH WIND       PRES   REMARKS
BATTLE CREEK   CLOUDY    54  47  77 SE7       29.82S
6HR MIN TEMP:  52; 6HR MAX TEMP:  56;

BENTON HARBOR  SUNNY     55  47  74 SE9       29.76S
6HR MIN TEMP:  53; 6HR MAX TEMP:  55;

BIG RAPIDS     MOSUNNY   46  40  82 SE5       29.82S
6HR MIN TEMP:  42; 6HR MAX TEMP:  47;

COLDWATER      MOSUNNY   52  47  84 SE8       29.82S
6HR MIN TEMP:  51; 6HR MAX TEMP:  54;

FREMONT        FAIR      51  41  69 E7        29.80S
HOLLAND        SUNNY     54  46  74 SE9       29.79S
6HR MIN TEMP:  51; 6HR MAX TEMP:  55;

GRAND RAPIDS   MOSUNNY   51  47  86 E8        29.80F
6HR MIN TEMP:  49; 6HR MAX TEMP:  54;

IONIA          FAIR      49  43  82 E5        29.82S
6HR MIN TEMP:  46; 6HR MAX TEMP:  49;

KALAMAZOO      MOSUNNY   55  46  71 SE7       29.81S
6HR MIN TEMP:  51; 6HR MAX TEMP:  55;

LUDINGTON      SUNNY     53  45  73 SE8       29.77S
6HR MIN TEMP:  50; 6HR MAX TEMP:  53;

MARSHALL       CLOUDY    54  48  79 SE7       29.82S
6HR MIN TEMP:  51; 6HR MAX TEMP:  54;

MOUNT PLEASANT SUNNY     47  42  81 CALM      29.84S
6HR MIN TEMP:  42; 6HR MAX TEMP:  47;

MUSKEGON       PTSUNNY   54  45  71 E9        29.78S
6HR MIN TEMP:  50; 6HR MAX TEMP:  56;

SOUTH HAVEN    SUNNY     53  47  78 SE8       29.77S
$$
MIZ016>042-251300-
NORTHERN LOWER MICHIGAN

CITY           SKY/WX    TMP DP  RH WIND       PRES   REMARKS
ALPENA         MOSUNNY   43  39  86 E8        29.91F
6HR MIN TEMP:  38; 6HR MAX TEMP:  43;

BEAVER ISLAND  CLOUDY    43  38  80 E9        29.80S
6HR MIN TEMP:  40; 6HR MAX TEMP:  45;

BELLAIRE       MOSUNNY   53  40  61 CALM      29.82S
6HR MIN TEMP:  50; 6HR MAX TEMP:  54;

CADILLAC       SUNNY     46  40  79 E6        29.82S
CHARLEVOIX     CLOUDY    52  40  63 SE10G18   29.83F
6HR MIN TEMP:  47; 6HR MAX TEMP:  52;

FRANKFORT      PTSUNNY   56  43  61 SE12G17   29.77F
GAYLORD        SUNNY     45  35  68 SE9       29.85S
6HR MIN TEMP:  43; 6HR MAX TEMP:  45;

GRAYLING       SUNNY     42  37  82 E5        29.85F
6HR MIN TEMP:  35; 6HR MAX TEMP:  42;

HARBOR SPRINGS CLOUDY    44  36  73 E13       29.83F
HOUGHTON LAKE  CLOUDY    48  38  68 SE8       29.85F
6HR MIN TEMP:  42; 6HR MAX TEMP:  48;

MANISTEE       MOSUNNY   53  43  68 E9        29.77F
OSCODA         CLOUDY    47  38  70 SE3       29.91R
6HR MIN TEMP:  36; 6HR MAX TEMP:  49;

PELLSTON       CLOUDY    45  35  68 SE7       29.85F
6HR MIN TEMP:  38; 6HR MAX TEMP:  45;

ROGERS CITY    MOSUNNY   40  37  87 SE6       29.91F
TRAVERSE CITY  PTSUNNY   53  40  61 VRB3      29.81R
6HR MIN TEMP:  51; 6HR MAX TEMP:  53;

$$
MIZ007>008-015-251300-
EASTERN UPPER MICHIGAN

CITY           SKY/WX    TMP DP  RH WIND       PRES   REMARKS
KINROSS        PTSUNNY   41  33  73 E15       29.87F
6HR MIN TEMP:  39; 6HR MAX TEMP:  42;

MACKINAC ISLAN MOSUNNY   38  38 100 E16G29    29.85F WCI  30
6HR MIN TEMP:  37; 6HR MAX TEMP:  41;

NEWBERRY       CLOUDY    43  37  80 SE10      29.81R
6HR MIN TEMP:  41; 6HR MAX TEMP:  44;

S. S. MARIE    CLOUDY    45  33  63 SE13G18   29.89S
6HR MIN TEMP:  44; 6HR MAX TEMP:  46;

MUNISING         N/A     47  37  68 S7        29.74F
6HR MIN TEMP:  46; 6HR MAX TEMP:  48;

$$
MIZ004>006-011>014-085-251300-
CENTRAL UPPER MICHIGAN

CITY           SKY/WX    TMP DP  RH WIND       PRES   REMARKS
MANISTIQUE     MOSUNNY   44  39  82 E12G17    29.78F
6HR MIN TEMP:  42; 6HR MAX TEMP:  45;

ESCANABA       CLOUDY    47  40  76 E8        29.76S
6HR MIN TEMP:  42; 6HR MAX TEMP:  50;

MENOMINEE      CLOUDY    49  40  71 SE9       29.73S
6HR MIN TEMP:  42; 6HR MAX TEMP:  56;

SAWYER-GWINN   SUNNY     45  37  76 S12       29.74S
$$
MIZ001>003-009>011-084-251300-
WESTERN UPPER MICHIGAN

CITY           SKY/WX    TMP DP  RH WIND       PRES   REMARKS
IRON MOUNTAIN  PTSUNNY   45  36  70 SE8       29.70S
6HR MIN TEMP:  43; 6HR MAX TEMP:  45;

HOUGHTON       CLOUDY    42  35  76 E7        29.66F
6HR MIN TEMP:  41; 6HR MAX TEMP:  50; 6HR PCP: TRACE;

COPPER HARBOR    N/A     46  37  71 SW12G23   29.67F
6HR MIN TEMP:  43; 6HR MAX TEMP:  47;

IRONWOOD       CLOUDY    54  34  46 SE12G21   29.59F
6HR MIN TEMP:  53; 6HR MAX TEMP:  59;

$$

ABBREVIATIONS USED IN REMARKS
   TC - TEMPERATURE IN CELSIUS
  WCI - WIND CHILL INDEX
   HX - HEAT INDEX
  VSB - VISIBILITY





USA.gov is the U.S. government's official web portal to all federal, state and local government web resources and services.